<?xml version="1.0" encoding="UTF-8" standalone="no" ?>
<gpx xmlns="http://www.topografix.com/GPX/1/1" xmlns:xsi="http://www.w3.org/2001/XMLSchema-instance" xsi:schemaLocation="http://www.topografix.com/GPX/1/1 http://www.topografix.com/GPX/1/1/gpx.xsd" version="1.1" creator="VisuGPX - https://www.visugpx.com">
  <metadata>
    <name>Circuit 9 de la base VTT du trièves</name>
    <desc><![CDATA[Le Serre des 9 Eglises]]></desc>
  </metadata>
  <trk>
    <name><![CDATA[Le Serre des 9 Eglises]]></name>
    <trkseg>
      <trkpt lat="44.83396" lon="5.71751">
        <ele>844</ele>
        <time>2011-01-10T13:49:37Z</time>
      </trkpt>
      <trkpt lat="44.83241" lon="5.71678">
        <ele>838</ele>
        <time>2011-01-10T13:49:37Z</time>
      </trkpt>
      <trkpt lat="44.83038" lon="5.71672">
        <ele>825</ele>
        <time>2011-01-10T13:49:37Z</time>
      </trkpt>
      <trkpt lat="44.82971" lon="5.71794">
        <ele>833</ele>
        <time>2011-01-10T13:49:37Z</time>
      </trkpt>
      <trkpt lat="44.82853" lon="5.7185">
        <ele>843</ele>
        <time>2011-01-10T13:49:37Z</time>
      </trkpt>
      <trkpt lat="44.82765" lon="5.71902">
        <ele>854</ele>
        <time>2011-01-10T13:49:37Z</time>
      </trkpt>
      <trkpt lat="44.82708" lon="5.72151">
        <ele>871</ele>
        <time>2011-01-10T13:49:37Z</time>
      </trkpt>
      <trkpt lat="44.82619" lon="5.7226">
        <ele>867</ele>
        <time>2011-01-10T13:49:37Z</time>
      </trkpt>
      <trkpt lat="44.82542" lon="5.72438">
        <ele>879</ele>
        <time>2011-01-10T13:49:37Z</time>
      </trkpt>
      <trkpt lat="44.82362" lon="5.72434">
        <ele>885</ele>
        <time>2011-01-10T13:49:37Z</time>
      </trkpt>
      <trkpt lat="44.82206" lon="5.7238">
        <ele>881</ele>
        <time>2011-01-10T13:49:37Z</time>
      </trkpt>
      <trkpt lat="44.82103" lon="5.72215">
        <ele>870</ele>
        <time>2011-01-10T13:49:37Z</time>
      </trkpt>
      <trkpt lat="44.81973" lon="5.71904">
        <ele>865</ele>
        <time>2011-01-10T13:49:37Z</time>
      </trkpt>
      <trkpt lat="44.81974" lon="5.71733">
        <ele>863</ele>
        <time>2011-01-10T13:49:37Z</time>
      </trkpt>
      <trkpt lat="44.82024" lon="5.71432">
        <ele>875</ele>
        <time>2011-01-10T13:49:37Z</time>
      </trkpt>
      <trkpt lat="44.82036" lon="5.71338">
        <ele>869</ele>
        <time>2011-01-10T13:49:37Z</time>
      </trkpt>
      <trkpt lat="44.81989" lon="5.71095">
        <ele>853</ele>
        <time>2011-01-10T13:49:37Z</time>
      </trkpt>
      <trkpt lat="44.81933" lon="5.71016">
        <ele>857</ele>
        <time>2011-01-10T13:49:37Z</time>
      </trkpt>
      <trkpt lat="44.81787" lon="5.7095">
        <ele>849</ele>
        <time>2011-01-10T13:49:37Z</time>
      </trkpt>
      <trkpt lat="44.81751" lon="5.70783">
        <ele>805</ele>
        <time>2011-01-10T13:49:37Z</time>
      </trkpt>
      <trkpt lat="44.81647" lon="5.70657">
        <ele>790</ele>
        <time>2011-01-10T13:49:37Z</time>
      </trkpt>
      <trkpt lat="44.81595" lon="5.70464">
        <ele>759</ele>
        <time>2011-01-10T13:49:37Z</time>
      </trkpt>
      <trkpt lat="44.81593" lon="5.70356">
        <ele>749</ele>
        <time>2011-01-10T13:49:37Z</time>
      </trkpt>
      <trkpt lat="44.81565" lon="5.70266">
        <ele>747</ele>
        <time>2011-01-10T13:49:37Z</time>
      </trkpt>
      <trkpt lat="44.81583" lon="5.70109">
        <ele>716</ele>
        <time>2011-01-10T13:49:37Z</time>
      </trkpt>
      <trkpt lat="44.81674" lon="5.70241">
        <ele>707</ele>
        <time>2011-01-10T13:49:37Z</time>
      </trkpt>
      <trkpt lat="44.81735" lon="5.70434">
        <ele>717</ele>
        <time>2011-01-10T13:49:37Z</time>
      </trkpt>
      <trkpt lat="44.81873" lon="5.705">
        <ele>728</ele>
        <time>2011-01-10T13:49:37Z</time>
      </trkpt>
      <trkpt lat="44.81986" lon="5.70481">
        <ele>731</ele>
        <time>2011-01-10T13:49:37Z</time>
      </trkpt>
      <trkpt lat="44.81993" lon="5.70406">
        <ele>731</ele>
        <time>2011-01-10T13:49:37Z</time>
      </trkpt>
      <trkpt lat="44.82124" lon="5.70515">
        <ele>741</ele>
        <time>2011-01-10T13:49:37Z</time>
      </trkpt>
      <trkpt lat="44.82246" lon="5.70643">
        <ele>762</ele>
        <time>2011-01-10T13:49:37Z</time>
      </trkpt>
      <trkpt lat="44.8232" lon="5.7073">
        <ele>769</ele>
        <time>2011-01-10T13:49:37Z</time>
      </trkpt>
      <trkpt lat="44.8233" lon="5.70996">
        <ele>802</ele>
        <time>2011-01-10T13:49:37Z</time>
      </trkpt>
      <trkpt lat="44.82383" lon="5.71182">
        <ele>812</ele>
        <time>2011-01-10T13:49:37Z</time>
      </trkpt>
      <trkpt lat="44.82399" lon="5.71386">
        <ele>784</ele>
        <time>2011-01-10T13:49:37Z</time>
      </trkpt>
      <trkpt lat="44.82515" lon="5.71406">
        <ele>783</ele>
        <time>2011-01-10T13:49:37Z</time>
      </trkpt>
      <trkpt lat="44.82675" lon="5.71466">
        <ele>800</ele>
        <time>2011-01-10T13:49:37Z</time>
      </trkpt>
      <trkpt lat="44.82808" lon="5.71544">
        <ele>806</ele>
        <time>2011-01-10T13:49:37Z</time>
      </trkpt>
      <trkpt lat="44.83032" lon="5.71576">
        <ele>824</ele>
        <time>2011-01-10T13:49:37Z</time>
      </trkpt>
      <trkpt lat="44.83052" lon="5.71673">
        <ele>826</ele>
        <time>2011-01-10T13:49:37Z</time>
      </trkpt>
      <trkpt lat="44.83272" lon="5.71686">
        <ele>840</ele>
        <time>2011-01-10T13:49:37Z</time>
      </trkpt>
      <trkpt lat="44.83405" lon="5.71751">
        <ele>844</ele>
        <time>2011-01-10T13:49:37Z</time>
      </trkpt>
    </trkseg>
  </trk>
</gpx>